Zurück zum Katalog

STARLINK-36758

AktivKommunikationVLEO
NORAD 67926·PAYLOAD·🇺🇸 United States

Gestartet Feb 22, 2026 von Vandenberg Space Force Base

Loading…

Nächste Überflüge (nächste 24 Stunden)

TLE

AktuellSource: CelesTrak SupGP

Epoche: Sep 14, 2026, 23:00 UTC

1 67926C 26036Y   26257.95881944  .00029381  00000+0  10643-2 0  2572
2 67926  43.0027 256.3740 0001478 263.8242 266.5031 15.27560759    13

Verfolge STARLINK-36758 in Echtzeit mit AllMySat

Download on the App Store